Location: Kruen
(47.5000°N, 11.5000°E)
Time: 03:48:01
(UTC+01:00)

ARIANE 6 FM1 Upper Stage - Visible Passes

Search period start: 18 February 2026 00:00
Search period end: 28 February 2026 00:00
Orbit: 522 x 608 km, 62.0° (Epoch: 17 February)

Date Brightness Start Highest point End Pass type
(mag) Time Alt. Az. Time Alt. Az. Time Alt. Az.
18 Feb 2.4 18:40:00 10° NW 18:43:58 80° NE 18:47:56 10° SE visible
18 Feb 5.4 20:20:30 10° W 20:22:24 13° WSW 20:24:20 10° SW visible
19 Feb 2.8 18:39:57 10° NW 18:43:54 72° SW 18:47:52 10° SE visible
20 Feb 3.5 18:39:59 10° NW 18:43:49 49° SW 18:47:39 10° SSE visible
21 Feb 4.3 18:40:05 10° WNW 18:43:40 34° WSW 18:47:16 10° S visible
22 Feb 5.1 18:40:18 10° WNW 18:43:30 24° WSW 18:46:42 10° S visible
23 Feb 5.6 18:40:43 10° WNW 18:43:17 17° WSW 18:45:50 10° SSW visible
24 Feb 6.0 18:41:41 10° W 18:43:01 11° WSW 18:44:21 10° SW visible
